[[{"header":{"parameterUnit":"m.s-1","parameterCategory":1,"la1":30.2991,"la2":30.254,"lo1":-89.0895,"lo2":-89.0444,"dy":0.0017,"dx":0.0017,"nx":28,"ny":28,"refTime":"2025-03-09T09:00:00:Z","depth":0,"parameterNumber":2,"parameterNumberName":"U-component_of_WINDS"},"data":[0,0,0,0,0,0,0,0,0,0,0,0,0,0,0,0,0,0,0,0,0,0,0,0,0,0,0,0,0,0,0,0,0,0,0,0,0,0,0,0,0,0,0,0,0,0,0,0,0,0,0,0,0,0,0,0,0,0,2.2627,2.2627,0,2.268,2.268,2.2681,2.2653,2.2651,2.265,2.2648,2.2701,2.2704,2.2707,0,0,0,0,0,0,0,0,0,0,0,0,0,2.25,2.2503,2.2627,2.2627,2.2628,2.268,2.268,2.2681,2.2653,2.2651,2.2649,2.2648,2.2701,2.2704,2.2707,0,0,0,0,0,0,0,0,0,0,0,0,0,2.2554,2.2503,2.2626,2.262,2.262,2.268,2.268,2.2681,2.2653,2.2651,2.2649,2.2647,2.2699,2.2703,2.2707,2.2776,0,0,2.272,2.2722,0,0,0,0,0,0,0,0,2.2551,2.2559,2.262,2.2621,2.2621,2.2657,2.2655,2.2713,2.2654,2.2641,2.2648,2.2646,2.2688,2.2693,2.2708,2.2778,2.278,2.272,2.2723,2.2725,2.2726,0,0,0,0,0,0,0,2.2548,2.2557,2.2648,2.2621,2.2622,2.2614,2.262,2.2666,2.2676,2.2642,2.264,2.2646,2.2688,2.2704,2.2709,2.2781,2.272,2.2724,2.2726,2.2728,2.2912,2.2914,0,0,0,0,0,0,2.2544,2.2554,2.2646,2.2649,2.258,2.2619,2.2624,2.2648,2.2675,2.2677,2.2648,2.2645,2.2698,2.2704,2.2711,2.2793,2.2725,2.2728,2.2731,2.2909,2.2912,2.2915,0,0,0,0,0,0,2.2542,2.2553,2.2644,2.2601,2.2612,2.2623,2.2649,2.265,2.2666,2.268,2.2682,2.2663,2.2697,2.2705,2.276,2.2795,2.273,2.2734,2.2906,2.291,2.2913,2.2958,0,0,0,0,0,0,2.2538,2.2552,2.2578,2.2602,2.2614,2.2693,2.2651,2.2653,2.2673,2.2669,2.2694,2.2696,2.2696,2.2754,2.2764,2.2799,2.2737,2.2903,2.2908,2.2912,2.2954,2.2963,2.2971,0,0,0,0,0,2.2534,2.2588,2.258,2.2591,2.2647,2.2695,2.2702,2.27,2.2676,2.2702,2.2712,2.2696,2.2789,2.276,2.2771,2.2808,2.2901,2.2907,2.2912,2.295,2.2961,2.2971,0,0,0,0,0,0,2.2567,2.2591,2.2582,2.2645,2.2668,2.269,2.2723,2.2712,2.2742,2.2737,2.2733,2.2739,2.2797,2.2808,2.2775,2.2876,2.2841,2.2849,2.2867,2.2877,2.2886,2.2882,2.2741,0,0,0,0,0,2.2582,2.2619,2.2637,2.2692,2.2704,2.2712,2.2732,2.2729,2.2752,2.2762,2.2775,2.2798,2.2833,2.2856,2.2888,2.2955,2.2961,2.2986,2.2995,2.3002,2.3008,2.3046,2.3057,2.2932,2.2932,2.2932,0,0,2.2613,2.263,2.2654,2.2699,2.2716,2.2755,2.272,2.2761,2.279,2.2768,2.2821,2.2832,2.2857,2.2919,2.2947,2.293,2.3044,2.3009,2.3014,2.3017,2.3053,2.3064,2.3075,2.2936,2.2935,2.2935,0,0,2.2689,2.2706,2.2753,2.2772,2.2799,2.2804,2.2816,2.2839,2.2846,2.2899,2.2884,2.2918,2.2977,2.2997,2.3014,2.3099,2.3086,2.311,2.3154,2.3191,2.3201,2.321,2.324,2.3251,2.3117,2.3117,2.3117,0,2.2723,2.2781,2.2779,2.2822,2.2843,2.2826,2.2874,2.2892,2.2929,2.2943,2.2924,2.3,2.3015,2.3082,2.3103,2.3117,2.3131,2.3107,2.32,2.3208,2.3216,2.3246,2.3257,2.312,2.3119,2.3119,2.3119,0,2.2822,2.2862,2.2898,2.2934,2.2959,2.3004,2.301,2.3035,2.303,2.3037,2.3093,2.3111,2.3148,2.3164,2.3159,2.323,2.3219,2.32,2.3165,2.3231,2.3259,2.327,2.3124,2.3123,2.3122,2.3121,0,0,2.292,2.2956,2.2969,2.2986,2.3015,2.3046,2.3091,2.3128,2.315,2.3176,2.3214,2.3266,2.3249,2.3269,2.3266,2.3298,2.3366,2.3275,2.3276,2.3292,2.3446,2.346,2.3473,2.3357,2.3359,2.3361,2.3444,0,2.2998,2.3077,2.3078,2.3151,2.3188,2.3174,2.3213,2.3236,2.3244,2.3277,2.3286,2.3323,2.3297,2.3309,2.334,2.3351,2.3396,2.3345,2.3392,2.3394,2.3386,2.3488,2.3502,2.358,2.3455,2.3456,2.3458,0,2.3099,2.313,2.3207,2.3233,2.3248,2.3284,2.3318,2.335,2.3375,2.3379,2.3403,2.3395,2.3442,2.3406,2.347,2.3435,2.3455,2.3463,2.3466,2.347,2.343,2.3495,2.3605,2.3616,2.3475,2.3473,2.3472,0,2.3163,2.3224,2.3278,2.3293,2.3324,2.3349,2.3363,2.3387,2.3409,2.3439,2.3454,2.3489,2.3508,2.3535,2.3538,2.3511,2.3602,2.3567,2.3607,2.3607,2.3626,2.3625,2.3741,2.3639,2.3639,2.3639,2.3638,0,2.3251,2.3299,2.3307,2.3341,2.3394,2.3395,2.3448,2.3459,2.3481,2.3516,2.3505,2.3539,2.3541,2.3575,2.3578,2.3631,2.3639,2.3644,2.3644,2.3645,2.3644,2.3657,2.3652,2.3642,2.3641,2.3641,2.364,0,2.3331,2.3339,2.3397,2.3422,2.3429,2.3468,2.3489,2.3521,2.3529,2.3574,2.3585,2.3597,2.3637,2.3643,2.3689,2.3691,2.3755,2.3749,2.3747,2.3746,2.3786,2.3782,2.3915,2.3932,2.3819,2.382,2.3821,0,2.3386,2.3423,2.3452,2.3476,2.3491,2.3529,2.3552,2.3554,2.3579,2.3612,2.364,2.3679,2.3711,2.3776,2.3789,2.3825,2.382,2.3864,2.3825,2.3826,2.3821,2.3819,2.3823,2.3871,2.3873,2.3874,2.3874,0,2.3483,2.3486,2.352,2.3556,2.3585,2.3613,2.364,2.366,2.3665,2.3693,2.3735,2.376,2.3808,2.3848,2.3884,2.3898,2.3887,2.3887,2.3898,2.3899,2.3896,2.3899,2.3767,2.3883,2.3883,2.3882,2.3881,2.3881,2.3553,2.3585,2.3612,2.365,2.3671,2.3697,2.3729,2.3741,2.3776,2.3816,2.3815,2.3861,2.3886,2.3934,2.3951,2.3987,2.3972,2.3988,2.3992,2.3996,2.4001,2.3891,2.3993,2.3993,2.3993,2.3992,2.3992,0,2.365,2.3667,2.3702,2.3741,2.3772,2.376,2.379,2.3816,2.3857,2.3882,2.3914,2.3962,2.4,2.4017,2.4055,2.408,2.4077,2.409,2.4088,2.4092,2.4011,2.3998,2.4093,2.4093,2.4093,2.4093,2.4093,2.4093,2.3704,2.3759,2.3765,2.383,2.3846,2.3891,2.3909,2.3933,2.3953,2.4008,2.404,2.4051,2.4073,2.4112,2.4147,2.4151,2.4166,2.4182,2.4183,2.4108,2.4097,2.4088,2.4075,2.4185,2.4185,2.4261,2.4262,2.4262]},{"header":{"parameterUnit":"m.s-1","parameterCategory":1,"la1":30.2991,"la2":30.254,"lo1":-89.0895,"lo2":-89.0444,"dy":0.0017,"dx":0.0017,"nx":28,"ny":28,"refTime":"2025-03-09T09:00:00:Z","depth":0,"parameterNumber":3,"parameterNumberName":"V-component_of_WINDS"},"data":[0,0,0,0,0,0,0,0,0,0,0,0,0,0,0,0,0,0,0,0,0,0,0,0,0,0,0,0,0,0,0,0,0,0,0,0,0,0,0,0,0,0,0,0,0,0,0,0,0,0,0,0,0,0,0,0,0,0,-1.7184,-1.7185,0,-1.7276,-1.7277,-1.7278,-1.7277,-1.7275,-1.7274,-1.7273,-1.7365,-1.7369,-1.7373,0,0,0,0,0,0,0,0,0,0,0,0,0,-1.7007,-1.701,-1.7184,-1.7185,-1.7186,-1.7275,-1.7277,-1.7278,-1.7277,-1.7275,-1.7274,-1.7272,-1.7364,-1.7369,-1.7373,0,0,0,0,0,0,0,0,0,0,0,0,0,-1.709,-1.7011,-1.7184,-1.7196,-1.7198,-1.7275,-1.7277,-1.7278,-1.7277,-1.7275,-1.7273,-1.7272,-1.7363,-1.7368,-1.7373,-1.7443,0,0,-1.739,-1.7392,0,0,0,0,0,0,0,0,-1.7085,-1.7096,-1.7193,-1.7196,-1.7198,-1.7263,-1.7248,-1.7334,-1.7278,-1.7247,-1.7273,-1.7271,-1.7333,-1.734,-1.7362,-1.7448,-1.7452,-1.739,-1.7394,-1.7396,-1.7398,0,0,0,0,0,0,0,-1.7079,-1.7092,-1.722,-1.7195,-1.7198,-1.7197,-1.7207,-1.7265,-1.7299,-1.725,-1.725,-1.7261,-1.7334,-1.7356,-1.7364,-1.7453,-1.739,-1.7395,-1.7398,-1.7401,-1.7603,-1.7605,0,0,0,0,0,0,-1.7071,-1.7088,-1.7217,-1.7223,-1.7136,-1.7202,-1.7213,-1.7244,-1.7298,-1.7305,-1.7262,-1.726,-1.7348,-1.7358,-1.7367,-1.7454,-1.7396,-1.7401,-1.7404,-1.76,-1.7603,-1.7605,0,0,0,0,0,0,-1.7067,-1.7083,-1.7213,-1.7155,-1.7172,-1.7207,-1.7242,-1.7247,-1.7269,-1.7308,-1.7314,-1.7279,-1.7347,-1.7359,-1.7425,-1.7457,-1.7403,-1.7408,-1.7598,-1.7601,-1.7604,-1.7626,0,0,0,0,0,0,-1.7062,-1.7081,-1.7108,-1.7156,-1.7175,-1.727,-1.7244,-1.725,-1.7279,-1.7277,-1.7325,-1.7332,-1.7347,-1.7417,-1.743,-1.7463,-1.7413,-1.7595,-1.7599,-1.7603,-1.7623,-1.763,-1.7636,0,0,0,0,0,-1.7056,-1.711,-1.711,-1.7125,-1.7209,-1.7272,-1.7283,-1.7299,-1.7281,-1.7309,-1.7334,-1.733,-1.7451,-1.7424,-1.7439,-1.7474,-1.7593,-1.7598,-1.7603,-1.762,-1.7628,-1.7636,0,0,0,0,0,0,-1.7064,-1.7117,-1.7117,-1.7188,-1.7225,-1.7271,-1.7306,-1.7307,-1.735,-1.7347,-1.7365,-1.7376,-1.7442,-1.7464,-1.7432,-1.7545,-1.752,-1.7528,-1.7528,-1.7536,-1.7542,-1.7536,-1.7417,0,0,0,0,0,-1.7075,-1.7121,-1.7164,-1.7223,-1.7242,-1.7271,-1.7299,-1.7308,-1.7348,-1.7363,-1.7393,-1.7431,-1.7478,-1.7508,-1.7553,-1.7626,-1.7637,-1.7658,-1.7664,-1.7669,-1.7676,-1.7718,-1.7727,-1.7621,-1.7621,-1.7621,0,0,-1.7096,-1.713,-1.7158,-1.7225,-1.7256,-1.7303,-1.7284,-1.7335,-1.7371,-1.7371,-1.7435,-1.7458,-1.7502,-1.7572,-1.7604,-1.7593,-1.7708,-1.7675,-1.7679,-1.7683,-1.7723,-1.7734,-1.7742,-1.7624,-1.7624,-1.7623,0,0,-1.7159,-1.719,-1.7243,-1.7274,-1.732,-1.734,-1.7352,-1.7399,-1.7415,-1.7479,-1.7481,-1.7523,-1.7603,-1.7635,-1.7661,-1.7739,-1.7737,-1.7753,-1.7787,-1.7827,-1.7835,-1.7843,-1.7871,-1.7881,-1.7759,-1.7759,-1.776,0,-1.718,-1.7252,-1.727,-1.7322,-1.7351,-1.7355,-1.7409,-1.7438,-1.7496,-1.7517,-1.7503,-1.7605,-1.7634,-1.7712,-1.7731,-1.7753,-1.7768,-1.7747,-1.7833,-1.784,-1.7848,-1.7875,-1.7885,-1.7761,-1.7761,-1.7761,-1.7761,0,-1.7276,-1.7326,-1.7363,-1.7421,-1.7455,-1.7507,-1.7533,-1.7565,-1.7572,-1.7593,-1.7659,-1.7695,-1.7748,-1.7767,-1.7774,-1.7847,-1.7839,-1.7829,-1.7804,-1.7859,-1.7885,-1.7896,-1.7763,-1.7763,-1.7762,-1.7762,0,0,-1.7346,-1.7414,-1.7427,-1.7454,-1.7506,-1.7545,-1.7599,-1.7651,-1.7679,-1.772,-1.7765,-1.7833,-1.7825,-1.7855,-1.7866,-1.7901,-1.7961,-1.7887,-1.7888,-1.79,-1.8045,-1.8052,-1.8064,-1.7961,-1.7963,-1.7964,-1.8041,0,-1.7416,-1.751,-1.7528,-1.7611,-1.7658,-1.7662,-1.7709,-1.7746,-1.7767,-1.781,-1.7833,-1.7882,-1.7867,-1.7886,-1.7921,-1.7946,-1.7991,-1.7941,-1.8003,-1.8005,-1.7992,-1.8077,-1.8085,-1.8155,-1.8051,-1.8053,-1.8054,0,-1.7509,-1.7553,-1.7641,-1.7688,-1.7709,-1.775,-1.78,-1.7841,-1.7884,-1.7897,-1.7932,-1.7939,-1.7995,-1.7968,-1.8045,-1.8011,-1.8038,-1.8054,-1.8058,-1.8064,-1.8033,-1.8086,-1.8178,-1.8189,-1.807,-1.8069,-1.8068,0,-1.7552,-1.7634,-1.7697,-1.772,-1.7776,-1.7806,-1.783,-1.7871,-1.7902,-1.7946,-1.7967,-1.8016,-1.8044,-1.8082,-1.8103,-1.8081,-1.8179,-1.8154,-1.8192,-1.8191,-1.8212,-1.8211,-1.831,-1.8229,-1.8228,-1.8228,-1.8228,0,-1.7628,-1.7682,-1.7718,-1.7756,-1.7817,-1.7837,-1.7896,-1.7921,-1.7957,-1.8001,-1.8008,-1.8049,-1.8074,-1.8118,-1.8135,-1.8197,-1.8209,-1.8221,-1.8225,-1.8221,-1.822,-1.8239,-1.8235,-1.8231,-1.823,-1.823,-1.8229,0,-1.7687,-1.7713,-1.7782,-1.7831,-1.7844,-1.7887,-1.7928,-1.7967,-1.7988,-1.8044,-1.8058,-1.8092,-1.8145,-1.817,-1.8235,-1.8246,-1.8317,-1.8317,-1.8303,-1.8305,-1.8342,-1.8338,-1.8457,-1.8474,-1.8381,-1.8382,-1.8383,0,-1.7734,-1.7775,-1.7829,-1.7859,-1.7885,-1.7933,-1.7966,-1.7987,-1.8021,-1.8073,-1.8105,-1.8159,-1.8203,-1.8288,-1.8318,-1.8369,-1.837,-1.8409,-1.8378,-1.8373,-1.8372,-1.8369,-1.8374,-1.8414,-1.8415,-1.8416,-1.8416,0,-1.7814,-1.7826,-1.7872,-1.7923,-1.7962,-1.8003,-1.8043,-1.8068,-1.8096,-1.8133,-1.8188,-1.8222,-1.829,-1.8343,-1.8396,-1.8422,-1.8424,-1.8426,-1.8438,-1.8434,-1.8425,-1.8431,-1.8319,-1.8423,-1.8422,-1.8422,-1.8422,-1.8421,-1.7869,-1.7907,-1.7951,-1.8002,-1.8035,-1.8073,-1.8112,-1.8139,-1.8186,-1.8243,-1.8253,-1.8312,-1.8355,-1.8426,-1.8454,-1.85,-1.8491,-1.8508,-1.8512,-1.8516,-1.8518,-1.8417,-1.851,-1.8509,-1.8509,-1.8509,-1.8509,0,-1.795,-1.7979,-1.8027,-1.8084,-1.8125,-1.8124,-1.8169,-1.8204,-1.8256,-1.8296,-1.8339,-1.8403,-1.8455,-1.8491,-1.8544,-1.8574,-1.8577,-1.8588,-1.8586,-1.8592,-1.8523,-1.8508,-1.8585,-1.8585,-1.8585,-1.8585,-1.8585,-1.8585,-1.7998,-1.8062,-1.8079,-1.8159,-1.8188,-1.8246,-1.8272,-1.8308,-1.834,-1.8411,-1.8455,-1.8478,-1.8516,-1.8572,-1.8621,-1.863,-1.8649,-1.866,-1.8669,-1.8604,-1.8596,-1.8589,-1.8575,-1.8664,-1.8664,-1.8734,-1.8735,-1.8735]}]]